Location: Newark
(42.8481°N, 0.4872°E)
Time: 16:40:22
(UTC+00:00)

Vanguard 2 - Pass Details

Date: 29 October 2020
Orbit: 554 x 2937 km, 32.9° (Epoch: 27 November)

Event Time Altitude Azimuth Distance (km) Brightness Sun altitude
Rises 20:23:12 0° 248° (WSW) 5,386 12.4 -38.6°
Reaches altitude 10° 20:26:22 10° 245° (WSW) 4,658 11.9 -39.1°
Enters shadow 20:39:48 58° 175° (S) 3,064 10.2 -41.4°
Maximum altitude 20:40:06 58° 171° (S) 3,073 - -41.5°
Drops below altitude 10° 20:57:23 10° 99° (E) 5,731 - -44.4°
Sets 21:01:47 0° 96° (E) 6,652 - -45.1°
